Onweer radar Meer informatie blitzortung!


Regen radar Meer informatie rain snow radar


Bezoek onze andere website:

Template documentation
and downloads

And another site



15 daagse weersverwachting Bradford (GB)

  • Overzicht
  • Per uur
  • 15 dagen
  • Extra
  • Vergelijk
  • Kaarten
  • Dagkaart
  • Meer »
  • Info
  • Statistieken
  • Directe link
    Temp 6h Neerslag Wind  
 08:13     16:24    Daglengte: 8:11 Vandaag
12:00
2.7 mm
7
18:00
8.9 mm
9
 08:11     16:26    Daglengte: 8:15 Morgen
00:00
10°
16.0 mm
9
06:00
10°
19.5 mm
7
12:00
10°
18.9 mm
6
18:00
16.2 mm
6
 08:10     16:28    Daglengte: 8:18 Donderdag 21 Jan
00:00
31.8 mm
6
06:00
21.7 mm
9
12:00
31.1 mm
10
18:00
18.7 mm
10
 08:09     16:30    Daglengte: 8:21 Vrijdag 22 Jan
00:00
33.6 mm
8
06:00
81.9 mm
7
Locatie info
Region: England
Latitude: 53.7957°N
Longitude: -1.7583°E
110 masl
Postcode: BD1 2
Temp/Neerslag /Baro Onweer/DauwpuntSneeuw
    Temp Baro 1h Neerslag Dauwpunt Wind UV BewolkingSneeuw  
 08:13     16:24    Daglengte: 8:11 Vandaag
12:00
Voelt als: 5.0°
997.2 hPa 2.7 mm
48%
7.0°
7
Windvlaag: 3.5 m/s
91%
13:00
Voelt als: 5.4°
996.2 hPa 1.2 mm
82%
7.3°
7
Windvlaag: 4 m/s
91%
14:00
Voelt als: 5.3°
995.2 hPa 1.3 mm
82%
6.7°
7
Windvlaag: 5.5 m/s
91%
15:00
Voelt als: 5.1°
994.1 hPa 1.7 mm
82%
6.9°
7
Windvlaag: 5.8 m/s
91%
16:00
Voelt als: 5.1°
993.0 hPa 1.8 mm
82%
7.3°
7
Windvlaag: 5.9 m/s
91%
17:00
Voelt als: 5.2°
991.8 hPa 1.5 mm
82%
7.7°
9
Windvlaag: 6.2 m/s
91%
18:00
Voelt als: 5.2°
990.9 hPa 1.5 mm
82%
7.8°
9
Windvlaag: 6.3 m/s
91%
19:00
Voelt als: 5.2°
989.9 hPa 1.9 mm
82%
7.6°
9
Windvlaag: 6.8 m/s
91%
20:00
Voelt als: 5.2°
989.2 hPa 2.2 mm
82%
7.6°
9
Windvlaag: 6.5 m/s
90%
21:00
Voelt als: 5.5°
988.3 hPa 3.4 mm
82%
7.7°
8
Windvlaag: 6.1 m/s
91%
22:00
Voelt als: 5.6°
987.7 hPa 3.1 mm
82%
8.1°
9
Windvlaag: 6.3 m/s
90%
23:00
10°
Voelt als: 5.8°
987.2 hPa 2.2 mm
82%
8.3°
9
Windvlaag: 6.2 m/s
90%
 08:11     16:26    Daglengte: 8:15 Morgen
00:00
10°
Voelt als: 6.0°
986.6 hPa 3.3 mm
81%
8.4°
9
Windvlaag: 6.7 m/s
90%
01:00
10°
Voelt als: 6.1°
985.8 hPa 3.3 mm
77%
8.4°
8
Windvlaag: 6.8 m/s
87%
02:00
10°
Voelt als: 6.1°
985.2 hPa 3.4 mm
72%
8.4°
9
Windvlaag: 6.3 m/s
87%
03:00
10°
Voelt als: 6.3°
984.6 hPa 3.9 mm
33%
8.4°
8
Windvlaag: 6.2 m/s
88%
04:00
10°
Voelt als: 6.4°
984.1 hPa 3.8 mm
74%
8.5°
8
Windvlaag: 6.4 m/s
89%
05:00
10°
Voelt als: 6.4°
983.6 hPa 2.6 mm
82%
8.3°
8
Windvlaag: 6.3 m/s
90%
06:00
10°
Voelt als: 6.2°
983.2 hPa 2.5 mm
82%
8.0°
7
Windvlaag: 5.4 m/s
91%
07:00
Voelt als: 6.2°
982.8 hPa 2.6 mm
82%
7.7°
7
Windvlaag: 5.6 m/s
91%
08:00
10°
Voelt als: 6.5°
982.3 hPa 3.7 mm
82%
8.0°
7
Windvlaag: 6 m/s
90%
09:00
10°
Voelt als: 6.5°
981.9 hPa 3.0 mm
82%
8.0°
7
Windvlaag: 6 m/s
90%
10:00
10°
Voelt als: 6.9°
981.3 hPa 3.1 mm
82%
8.1°
7
Windvlaag: 5.5 m/s
91%
11:00
10°
Voelt als: 7.2°
980.7 hPa 3.2 mm
82%
8.6°
6
Windvlaag: 5.5 m/s
91%
12:00
10°
Voelt als: 7.0°
979.7 hPa 3.4 mm
82%
8.5°
6
Windvlaag: 2.9 m/s
91%
13:00
10°
Voelt als: 6.8°
978.6 hPa 5.1 mm
79%
8.4°
7
Windvlaag: 3.8 m/s
89%
14:00
10°
Voelt als: 6.3°
977.4 hPa 5.2 mm
75%
8.1°
8
Windvlaag: 4.3 m/s
90%
15:00
Voelt als: 5.9°
976.8 hPa
64%
7.7°
7
Windvlaag: 4 m/s
88%
16:00
Voelt als: 5.5°
976.3 hPa
21%
7.3°
6
Windvlaag: 5.1 m/s
87%
17:00
Voelt als: 5.5°
975.6 hPa
66%
7.1°
6
Windvlaag: 5.3 m/s
90%
18:00
Voelt als: 5.2°
974.9 hPa 5.9 mm
82%
6.8°
6
Windvlaag: 5.1 m/s
89%
19:00
Voelt als: 4.7°
974.0 hPa 6.0 mm
82%
6.6°
6
Windvlaag: 4.9 m/s
91%
20:00
Voelt als: 4.9°
973.4 hPa 5.1 mm
82%
6.7°
6
Windvlaag: 4 m/s
91%
21:00
Voelt als: 2.6°
972.9 hPa 5.3 mm
82%
4.7°
6
Windvlaag: 3.7 m/s
90%
22:00
Voelt als: 2.1°
972.0 hPa 5.4 mm
82%
4.2°
5
Windvlaag: 0.6 m/s
90%
23:00
Voelt als: -0.3°
971.8 hPa 5.2 mm
82%
2.6°
6
Windvlaag: 0.8 m/s
91%
 08:10     16:28    Daglengte: 8:18 Donderdag 21 Jan
00:00
Voelt als: -1.5°
971.5 hPa 4.8 mm
82%
2.3°
6
Windvlaag: 0.9 m/s
90%
01:00
Voelt als: -2.3°
971.3 hPa 7.2 mm
82%
1.8°
6
Windvlaag: 1.3 m/s
84%
02:00
Voelt als: -3.3°
971.7 hPa 7.2 mm
82%
1.5°
8
Windvlaag: 2.5 m/s
55%
03:00
Voelt als: -3.8°
972.8 hPa 7.4 mm
82%
1.3°
9
Windvlaag: 4.8 m/s
80%1 cm
04:00
Voelt als: -3.8°
974.0 hPa
26%
0.3°
9
Windvlaag: 6.1 m/s
26%2 cm
05:00
Voelt als: -3.5°
975.0 hPa
23%
-0.0°
9
Windvlaag: 6.3 m/s
54%2 cm
06:00
Voelt als: -3.4°
975.6 hPa
57%
0.1°
9
Windvlaag: 6.6 m/s
55%2 cm
07:00
Voelt als: -3.2°
976.0 hPa
26%
0.2°
8
Windvlaag: 7.6 m/s
56%2 cm
08:00
Voelt als: -3.4°
976.3 hPa
31%
0.6°
9
Windvlaag: 8.9 m/s
52%2 cm
09:00
Voelt als: -3.4°
974.6 hPa 7.6 mm
39%
0.8°
10
Windvlaag: 9 m/s
63%2 cm
10:00
Voelt als: -2.7°
974.5 hPa 7.6 mm
80%
1.0°
9
Windvlaag: 9 m/s
68%2 cm
11:00
Voelt als: -3.0°
974.1 hPa 7.9 mm
35%
1.2°
10
Windvlaag: 9.4 m/s
81%2 cm
12:00
Voelt als: -2.7°
973.8 hPa 8.1 mm
42%
1.4°
10
Windvlaag: 8.5 m/s
95%2 cm
13:00
Voelt als: -2.3°
974.1 hPa 6.0 mm
100%
0.8°
10
Windvlaag: 8.3 m/s
92%2 cm
14:00
Voelt als: -2.8°
974.6 hPa 6.3 mm
100%
1.7°
10
Windvlaag: 7.8 m/s
87%2 cm
15:00
Voelt als: -2.9°
975.2 hPa 6.5 mm
100%
2.1°
9
Windvlaag: 7.2 m/s
78%2 cm
16:00
Voelt als: -2.5°
975.6 hPa
98%
2.1°
10
Windvlaag: 6.6 m/s
66%2 cm
17:00
Voelt als: -2.2°
976.3 hPa
41%
2.0°
10
Windvlaag: 6.3 m/s
65%2 cm
18:00
Voelt als: -2.0°
977.0 hPa
84%
1.6°
10
Windvlaag: 6.1 m/s
62%2 cm
19:00
Voelt als: -2.2°
977.3 hPa 8.1 mm
97%
1.5°
9
Windvlaag: 5.8 m/s
69%2 cm
20:00
Voelt als: -2.3°
977.7 hPa
100%
1.4°
9
Windvlaag: 5.2 m/s
73%2 cm
21:00
Voelt als: -2.5°
978.0 hPa 8.4 mm
100%
1.3°
9
Windvlaag: 3.5 m/s
46%2 cm
22:00
Voelt als: -2.7°
978.3 hPa 8.6 mm
100%
1.3°
9
Windvlaag: 2.6 m/s
40%2 cm
23:00
Voelt als: -3.0°
978.7 hPa 8.5 mm
100%
1.1°
9
Windvlaag: 2.1 m/s
46%2 cm
 08:09     16:30    Daglengte: 8:21 Vrijdag 22 Jan
00:00
Voelt als: -2.8°
979.6 hPa
100%
1.0°
8
Windvlaag: 2.1 m/s
52%2 cm
01:00
Voelt als: -2.8°
980.4 hPa 13.7 mm
100%
0.9°
8
Windvlaag: 4.6 m/s
53%2 cm
02:00
Voelt als: -2.6°
981.0 hPa 13.7 mm
100%
1.0°
8
Windvlaag: 2.1 m/s
69%2 cm
03:00
Voelt als: -2.9°
981.3 hPa 13.8 mm
100%
0.9°
8
Windvlaag: 1.2 m/s
59%2 cm
04:00
Voelt als: -3.1°
981.8 hPa 13.6 mm
100%
0.7°
8
Windvlaag: 0.9 m/s
60%2 cm
05:00
Voelt als: -2.7°
982.5 hPa 13.6 mm
100%
0.8°
7
Windvlaag: 1.1 m/s
66%2 cm
06:00
Voelt als: -2.9°
983.4 hPa 13.6 mm
100%
0.5°
7
Windvlaag: 0.6 m/s
58%2 cm
07:00
Voelt als: -3.0°
985.9 hPa
100%
0.1°
7
Windvlaag: 11.6 m/s
35%2 cm
08:00
Voelt als: -2.8°
986.5 hPa
100%
0.1°
7
Windvlaag: 12.4 m/s
34%2 cm
09:00
Voelt als: -2.5°
987.3 hPa
44%
0.2°
7
Windvlaag: 12.3 m/s
36%2 cm
10:00
Voelt als: -2.1°
987.9 hPa
88%
0.3°
7
Windvlaag: 11.5 m/s
33%2 cm
11:00
Voelt als: -1.7°
988.6 hPa
90%
0.5°
7
Windvlaag: 10.5 m/s
37%2 cm
Temp/Neerslag /Baro Onweer/DauwpuntSneeuw
    Temp Baro Neerslag Dauwpunt Wind BewolkingSneeuw  
 08:13     16:24    Daglengte: 8:11 Vandaag
12:00
Voelt als: 5.0°
997.2 hPa 2.7 mm 7.0°
7
91%
15:00
Voelt als: 5.1°
994.1 hPa 4.2 mm 6.9°
7
91%
18:00
Voelt als: 5.2°
990.9 hPa 4.7 mm 7.8°
9
91%
21:00
Voelt als: 5.5°
988.3 hPa 7.5 mm 7.7°
8
91%
 08:11     16:26    Daglengte: 8:15 Morgen
00:00
10°
Voelt als: 6.0°
986.6 hPa 8.5 mm 8.4°
9
90%
03:00
10°
Voelt als: 6.3°
984.6 hPa 10.6 mm 8.4°
8
88%
06:00
10°
Voelt als: 6.2°
983.2 hPa 9.0 mm 8.0°
7
91%
09:00
10°
Voelt als: 6.5°
981.9 hPa 9.2 mm 8.0°
7
90%
12:00
10°
Voelt als: 7.0°
979.7 hPa 9.7 mm 8.5°
6
91%
15:00
Voelt als: 5.9°
976.8 hPa 10.3 mm 7.7°
7
88%
18:00
Voelt als: 5.2°
974.9 hPa 5.9 mm 6.8°
6
89%
21:00
Voelt als: 2.6°
972.9 hPa 16.4 mm 4.7°
6
90%
 08:10     16:28    Daglengte: 8:18 Donderdag 21 Jan
00:00
Voelt als: -1.5°
971.5 hPa 15.3 mm 2.3°
6
90%
03:00
Voelt als: -3.8°
972.8 hPa 21.7 mm 1.3°
9
80%1 cm
06:00
Voelt als: -3.4°
975.6 hPa   0.1°
9
55%2 cm
09:00
Voelt als: -3.4°
974.6 hPa 7.6 mm 0.8°
10
63%2 cm
12:00
Voelt als: -2.7°
973.8 hPa 23.5 mm 1.4°
10
95%2 cm
15:00
Voelt als: -2.9°
975.2 hPa 18.7 mm 2.1°
9
78%2 cm
18:00
Voelt als: -2.0°
977.0 hPa   1.6°
10
62%2 cm
21:00
Voelt als: -2.5°
978.0 hPa 16.5 mm 1.3°
9
46%2 cm
 08:09     16:30    Daglengte: 8:21 Vrijdag 22 Jan
00:00
Voelt als: -2.8°
979.6 hPa 17.1 mm 1.0°
8
52%2 cm
03:00
Voelt als: -2.9°
981.3 hPa 41.1 mm 0.9°
8
59%2 cm
06:00
Voelt als: -2.9°
983.4 hPa 40.8 mm 0.5°
7
58%2 cm
09:00
Voelt als: -2.5°
987.3 hPa   0.2°
7
36%2 cm
12:00
Voelt als: -1.4°
989.1 hPa   0.6°
7
41%2 cm
15:00
Voelt als: -2.4°
992.0 hPa 46.6 mm 0.6°
6
66%
18:00
Voelt als: -3.0°
992.5 hPa 46.6 mm 0.4°
5
83%
21:00
Voelt als: -3.5°
993.1 hPa 46.6 mm -0.2°
5
58% warningclass
 08:07     16:32    Daglengte: 8:25 Zaterdag 23 Jan
00:00
Voelt als: -3.9°
993.8 hPa 46.6 mm -0.9°
4
34% warningclass
03:00
-0°
Voelt als: -4.3°
993.2 hPa 46.6 mm -1.5°
4
38% warningclass
06:00
-1°
Voelt als: -4.6°
992.6 hPa 46.6 mm -2.1°
3
43% warningclass
09:00
Voelt als: -1.7°
991.3 hPa 46.6 mm -1.5°
2
65% warningclass
12:00
Voelt als: 1.6°
990.0 hPa 46.6 mm -0.9°
1
86%
15:00
Voelt als: -0.5°
989.3 hPa 46.6 mm -1.1°
2
87% warningclass
18:00
-0°
Voelt als: -2.6°
988.7 hPa 46.6 mm -1.4°
2
89% warningclass
21:00
-1°
Voelt als: -4.2°
990.2 hPa 46.6 mm -2.2°
2
49% warningclass
 08:06     16:34    Daglengte: 8:28 Zondag 24 Jan
00:00
-2°
Voelt als: -5.7°
991.7 hPa 46.6 mm -3.0°
3
9% warningclass
03:00
-2°
Voelt als: -6.7°
993.4 hPa 46.6 mm -3.6°
4
12% warningclass
06:00
-3°
Voelt als: -7.6°
995.1 hPa 46.6 mm -4.2°
4
14% warningclass
09:00
-0°
Voelt als: -4.5°
996.7 hPa 47.5 mm -2.5°
4
52% warningclass
12:00
Voelt als: -1.3°
998.2 hPa 47.5 mm -1.1°
4
90%
15:00
Voelt als: -2.4°
998.5 hPa 47.5 mm -1.3°
4
90%
18:00
Voelt als: -3.7°
998.8 hPa 48.2 mm -1.2°
4
90% warningclass
21:00
-1°
Voelt als: -4.9°
999.4 hPa 49.4 mm -1.9°
4
58% warningclass
 08:04     16:36    Daglengte: 8:32 Maandag 25 Jan
00:00
-2°
Voelt als: -6.2°
1000.0 hPa 49.8 mm -2.6°
4
25% warningclass
03:00
-1°
Voelt als: -5.1°
1001.3 hPa 49.9 mm -2.2°
3
51% warningclass
06:00
-1°
Voelt als: -4.0°
1002.6 hPa 49.9 mm -1.7°
2
77% warningclass
09:00
Voelt als: -3.3°
1005.3 hPa 49.9 mm -1.9°
3
39% warningclass
12:00
Voelt als: -2.2°
1008.0 hPa 49.9 mm -2.2°
4
1%
15:00
Voelt als: -2.7°
1009.4 hPa 49.9 mm -1.3°
4
15%
18:00
Voelt als: -3.1°
1010.8 hPa 50.0 mm -0.5°
3
30% warningclass
21:00
Voelt als: -2.1°
1012.0 hPa 50.0 mm 0.5°
3
61%
 08:03     16:38    Daglengte: 8:35 Dinsdag 26 Jan
00:00
Voelt als: -1.1°
1012.9 hPa 50.0 mm 1.3°
3
92%
03:00
Voelt als: -1.8°
1012.1 hPa 51.7 mm 0.5°
3
91%
06:00
Voelt als: -2.3°
1011.1 hPa 59.7 mm -0.5°
3
91% warningclass
09:00
Voelt als: -1.5°
1008.5 hPa   0.9°
4
91%
12:00
Voelt als: -0.9°
1006.1 hPa 123.6 mm 1.6°
5
92%
18:00
Voelt als: 0.6°
995.3 hPa 123.7 mm 4.0°
8
61%
 08:01     16:39    Daglengte: 8:38 Woensdag 27 Jan
00:00
Voelt als: 3.2°
994.8 hPa 123.8 mm 6.0°
11
60%
06:00
Voelt als: 3.4°
995.9 hPa 124.4 mm 5.9°
9
50%
12:00
Voelt als: 4.3°
997.0 hPa 124.8 mm 5.9°
9
92%
18:00
Voelt als: 1.3°
996.4 hPa 125.0 mm 3.6°
7
8%
 08:00     16:41    Daglengte: 8:41 Donderdag 28 Jan
00:00
Voelt als: 3.6°
995.0 hPa 125.0 mm 4.9°
3
92%
06:00
Voelt als: 0.6°
987.4 hPa 127.7 mm 3.9°
5
92%
12:00
Voelt als: -2.2°
986.4 hPa 132.9 mm 1.7°
4
92%
18:00
Voelt als: -1.6°
994.5 hPa 133.0 mm 0.3°
5
92%
 07:58     16:43    Daglengte: 8:45 Vrijdag 29 Jan
00:00
Voelt als: 5.0°
999.4 hPa 141.0 mm 6.8°
4
1%
06:00
Voelt als: 2.4°
1001.6 hPa 0.5 mm 3.1°
3
86%
12:00
Voelt als: 4.2°
1003.8 hPa 0.8 mm 3.8°
3
89%
18:00
Voelt als: 3.5°
1003.1 hPa 1.2 mm 4.0°
3
83%
 07:56     16:45    Daglengte: 8:49 Zaterdag 30 Jan
00:00
Voelt als: 3.3°
1002.7 hPa 1.2 mm 4.1°
4
80%
06:00
Voelt als: 3.0°
1000.8 hPa 1.1 mm 3.9°
4
82%
12:00
Voelt als: 4.6°
1000.0 hPa 1.5 mm 4.6°
4
85%
18:00
Voelt als: 3.7°
998.8 hPa 1.4 mm 4.0°
3
84%
 07:55     16:47    Daglengte: 8:52 Zondag 31 Jan
00:00
Voelt als: 2.5°
998.4 hPa 1.3 mm 3.7°
4
84%
06:00
Voelt als: 1.2°
997.9 hPa 1.2 mm 2.8°
4
81%
12:00
Voelt als: 2.8°
998.9 hPa 0.8 mm 2.9°
5
72%
18:00
Voelt als: 1.5°
998.5 hPa   2.4°
4
77%
 07:53     16:49    Daglengte: 8:56 Maandag 01 Feb
00:00
Voelt als: 1.3°
999.6 hPa 1.3 mm 1.8°
3
79%
06:00
Voelt als: 1.3°
999.2 hPa 1.1 mm 1.7°
2
80%
12:00
Voelt als: 3.2°
999.1 hPa   2.8°
3
80%
18:00
Voelt als: 2.9°
998.2 hPa 2.6 mm 2.2°
2
81%
 07:51     16:51    Daglengte: 9:00 Dinsdag 02 Feb
00:00
Voelt als: 2.2°
999.1 hPa 1.5 mm 1.8°
1
79%
06:00
Voelt als: 1.6°
999.2 hPa 1.3 mm 1.4°
2
79%
12:00
Voelt als: 2.6°
1000.3 hPa 0.7 mm 2.2°
3
78%
18:00
Voelt als: 0.9°
1001.4 hPa 0.4 mm 1.2°
3
73%
 07:49     16:53    Daglengte: 9:04 Woensdag 03 Feb
00:00
Voelt als: 0.5°
1002.8 hPa 0.4 mm 0.7°
2
67%
06:00
Voelt als: 0.1°
1002.9 hPa 0.5 mm 0.3°
2
72%
  CAPE Lifted Index Hail Supercell Tornado SRH 3km CL BTM PRES CL TOP PRES Swiss DWD icon SMHI TS
 08:13     16:24    Daglengte: 8:11 Vandaag
12:00 1 J/kg 4.2 K 0 % 0 % 0 % 0 m²/s² 0 0 4.68 61
13:00 3 J/kg 4.4 K 0 % 0 % 0 % 0 m²/s² 0 0 4.73 61
14:00 0 J/kg 4.5 K 0 % 0 % 0 % 0 m²/s² 0 0 4.74 61
15:00 0 J/kg 3.1 K 0 % 0 % 0 % 0 m²/s² 0 0 3.43 61
16:00 0 J/kg 2.1 K 0 % 0 % 0 % 0 m²/s² 0 0 2.55 61
17:00 0 J/kg 1.6 K 0 % 0 % 0 % 0 m²/s² 0 0 1.84 61
18:00 0 J/kg 1.8 K 0 % 0 % 0 % 0 m²/s² 0 0 2.46 61
19:00 0 J/kg 1.7 K 0 % 0 % 0 % 0 m²/s² 0 0 2.75 61
20:00 0 J/kg 1.0 K 0 % 0 % 0 % 0 m²/s² 0 0 1.75 61
21:00 0 J/kg 1.0 K 0 % 0 % 0 % 0 m²/s² 0 0 1.42 61
22:00 3 J/kg 1.5 K 0 % 0 % 0 % 0 m²/s² 0 0 1.83 61
23:00 0 J/kg 1.0 K 0 % 0 % 0 % 0 m²/s² 0 0 1.51 61
 08:11     16:26    Daglengte: 8:15 Morgen
00:00 14 J/kg 1.4 K 0 % 0 % 0 % 0 m²/s² 0 0 2.48 3
01:00 1 J/kg 0.9 K 0 % 0 % 0 % 0 m²/s² 0 0 2.13 3
02:00 1 J/kg 1.3 K 0 % 0 % 0 % 0 m²/s² 0 0 2.86 3
03:00 0 J/kg 1.4 K 0 % 0 % 0 % 0 m²/s² 0 0 2.63 3
04:00 14 J/kg 1.1 K 0 % 0 % 0 % 0 m²/s² 0 0 2.48 3
05:00 15 J/kg 1.2 K 0 % 0 % 0 % 0 m²/s² 0 0 2.64 61
06:00 6 J/kg 1.8 K 0 % 0 % 0 % 0 m²/s² 0 0 3.18 61
07:00 17 J/kg 2.0 K 0 % 0 % 0 % 0 m²/s² 0 0 3.08 61
08:00 17 J/kg 1.7 K 0 % 0 % 0 % 0 m²/s² 0 0 2.36 61
09:00 19 J/kg 1.9 K 0 % 0 % 0 % 0 m²/s² 0 0 2.26 61
10:00 17 J/kg 2.1 K 0 % 0 % 0 % 0 m²/s² 0 0 2.43 61
11:00 0 J/kg 1.9 K 0 % 0 % 0 % 0 m²/s² 0 0 2.2 61
12:00 0 J/kg 2.4 K 0 % 0 % 0 % 0 m²/s² 0 0 2.7 61
13:00 1 J/kg 2.9 K 0 % 0 % 0 % 0 m²/s² 0 0 3.2 3
14:00 0 J/kg 3.1 K 0 % 0 % 0 % 0 m²/s² 0 0 3.4 3
15:00 1 J/kg 3.3 K 0 % 0 % 0 % 0 m²/s² 0 0 3.81 3
16:00 1 J/kg 3.2 K 0 % 0 % 0 % 0 m²/s² 0 0 3.5 3
17:00 1 J/kg 3.1 K 0 % 0 % 0 % 0 m²/s² 0 0 3.82 3
18:00 1 J/kg 1.6 K 0 % 0 % 0 % 0 m²/s² 0 0 3.94 3
19:00 1 J/kg 0.5 K 0 % 0 % 0 % 0 m²/s² 0 0 2.39 80
20:00 1 J/kg 2.3 K 0 % 0 % 0 % 0 m²/s² 0 0 3.77 63
21:00 0 J/kg 2.1 K 0 % 0 % 0 % 0 m²/s² 0 0 5.19 61
22:00 0 J/kg 2.6 K 0 % 0 % 0 % 0 m²/s² 0 0 4.61 63
23:00 1 J/kg 2.0 K 0 % 0 % 0 % 0 m²/s² 0 0 3.71 61
 08:10     16:28    Daglengte: 8:18 Donderdag 21 Jan
00:00 1 J/kg 2.0 K 0 % 0 % 0 % 0 m²/s² 0 0 2.36 61
01:00 0 J/kg 3.4 K 0 % 0 % 0 % 0 m²/s² 0 0 3.76 61
02:00 1 J/kg 4.6 K 0 % 0 % 0 % 0 m²/s² 0 0 5.35 61
03:00 0 J/kg 5.4 K 0 % 0 % 0 % 0 m²/s² 0 0 5.73 61
04:00 0 J/kg 6.3 K 0 % 0 % 0 % 0 m²/s² 0 0 6.72 2
05:00 0 J/kg 6.6 K 0 % 0 % 0 % 0 m²/s² 0 0 7.26 2
06:00 0 J/kg 6.4 K 0 % 0 % 0 % 0 m²/s² 0 0 8.14 2
07:00 13 J/kg 5.4 K 0 % 0 % 0 % 0 m²/s² 0 0 7.95 2
08:00 14 J/kg 5.1 K 0 % 0 % 0 % 0 m²/s² 0 0 7.65 2
09:00 1 J/kg 5.3 K 0 % 0 % 0 % 0 m²/s² 0 0 6.95 2
10:00 0 J/kg 4.8 K 0 % 0 % 0 % 0 m²/s² 0 0 5.76 2
11:00 3 J/kg 4.0 K 0 % 0 % 0 % 0 m²/s² 0 0 4.9 2
12:00 1 J/kg 4.3 K 0 % 0 % 0 % 0 m²/s² 0 0 5.08 3
13:00 0 J/kg 4.2 K 0 % 0 % 0 % 0 m²/s² 0 0 4.86 61
14:00 2 J/kg 3.5 K 0 % 0 % 0 % 0 m²/s² 0 0 4.28 61
15:00 0 J/kg 3.8 K 0 % 0 % 0 % 0 m²/s² 0 0 4.7 61
16:00 3 J/kg 3.2 K 0 % 0 % 0 % 0 m²/s² 0 0 4.73 2
17:00 0 J/kg 3.2 K 0 % 0 % 0 % 0 m²/s² 0 0 5.93 3
18:00 0 J/kg 2.9 K 0 % 0 % 0 % 0 m²/s² 0 0 6.17 3
19:00 0 J/kg 1.8 K 0 % 0 % 0 % 0 m²/s² 0 0 3.96 61
20:00 4 J/kg 1.4 K 0 % 0 % 0 % 0 m²/s² 0 0 5.18 61
21:00 64 J/kg 0.7 K 0 % 0 % 0 % 0 m²/s² 0 0 4.12 61
22:00 91 J/kg 0.5 K 0 % 0 % 0 % 0 m²/s² 0 0 3.26 61
23:00 43 J/kg 0.5 K 0 % 0 % 0 % 0 m²/s² 0 0 4.28 61
 08:09     16:30    Daglengte: 8:21 Vrijdag 22 Jan
00:00 9 J/kg 1.2 K 0 % 0 % 0 % 0 m²/s² 0 0 5.7 61
01:00 21 J/kg 0.4 K 0 % 0 % 0 % 0 m²/s² 0 0 4.57 61
02:00 58 J/kg 0.3 K 0 % 0 % 0 % 0 m²/s² 0 0 2.91 61
03:00 151 J/kg 0.1 K 0 % 0 % 0 % 0 m²/s² 0 0 2.62 61
04:00 122 J/kg -0.6 K 0 % 0 % 0 % 0 m²/s² 0 0 1.53 61
05:00 162 J/kg -0.9 K 0 % 0 % 0 % 0 m²/s² 0 0 1.17 61
06:00 84 J/kg -0.5 K 0 % 0 % 0 % 0 m²/s² 0 0 1.96 61
07:00 0 J/kg 1.5 K 0 % 0 % 0 % 0 m²/s² 0 0 3.75 61
08:00 0 J/kg 1.1 K 0 % 0 % 0 % 0 m²/s² 0 0 3.56 3
09:00 0 J/kg 1.3 K 0 % 0 % 0 % 0 m²/s² 0 0 5.14 3
10:00 0 J/kg 1.5 K 0 % 0 % 0 % 0 m²/s² 0 0 5.13 3
11:00 0 J/kg 1.2 K 0 % 0 % 0 % 0 m²/s² 0 0 4.83 3
Temp Baro Wind Neerslag
  EWN Forecast EWN WRFDA DWD ICON FMI HIRLAM MET Norway GFS
 08:13     16:24    Daglengte: 8:11 Vandaag
12:00 8.5° 997.2 hPa 6.8 m/s 2.7 mm 8.4° 994.9 hPa 6.7 m/s 4.3 mm 8.6° 997.3 hPa 4.7 m/s 3.9 mm 10.1° 997.7 hPa 9.9 m/s 0.0 mm 8.5° 997.3 hPa 7.0 m/s 9.1° 997.0 hPa 7.6 m/s
15:00 8.5° 994.1 hPa 6.7 m/s 4.2 mm 8.7° 990.8 hPa 6.3 m/s 16.5 mm 9.0° 994.8 hPa 5.9 m/s 1.4 mm 9.7° 994.7 hPa 10.0 m/s 0.0 mm 8.1° 994.2 hPa 6.1 m/s 8.5° 992.7 hPa 6.3 m/s
18:00 9.0° 990.9 hPa 8.9 m/s 4.7 mm 9.5° 988.3 hPa 9.2 m/s 24.6 mm 9.1° 991.0 hPa 6.4 m/s 0.9 mm 10.0° 992.6 hPa 10.7 m/s 0.0 mm 8.8° 990.6 hPa 8.9 m/s 10.1° 989.9 hPa 8.8 m/s
21:00 9.2° 988.3 hPa 8.4 m/s 7.5 mm 9.7° 985.7 hPa 8.4 m/s 29.2 mm 9.0° 988.0 hPa 5.3 m/s 5.2 mm 11.0° 990.7 hPa 9.7 m/s 0.0 mm 8.9° 988.2 hPa 8.4 m/s 10.1° 987.6 hPa 7.7 m/s
 08:11     16:26    Daglengte: 8:15 Morgen
00:00 9.6° 986.6 hPa 8.8 m/s 8.5 mm 9.8° 984.4 hPa 8.1 m/s 39.2 mm 10.0° 985.1 hPa 6.7 m/s 1.3 mm 10.7° 988.4 hPa 10.0 m/s 0.0 mm 9.1° 986.8 hPa 8.8 m/s 10.4° 986.1 hPa 8.8 m/s
03:00 9.7° 984.6 hPa 8.1 m/s 10.6 mm 9.7° 982.0 hPa 7.6 m/s 41.4 mm 10.0° 984.2 hPa 6.2 m/s 0.0 mm 10.7° 986.7 hPa 8.6 m/s 0.0 mm 9.2° 984.7 hPa 8.3 m/s 10.1° 984.2 hPa 7.3 m/s
06:00 9.5° 983.2 hPa 7.4 m/s 9.0 mm 9.6° 981.5 hPa 5.9 m/s 41.9 mm 10.0° 983.3 hPa 4.5 m/s 0.5 mm 10.8° 985.2 hPa 7.9 m/s 0.0 mm 8.8° 982.7 hPa 8.4 m/s 9.9° 983.6 hPa 6.2 m/s
09:00 9.6° 981.9 hPa 6.8 m/s 9.2 mm 9.3° 980.0 hPa 3.5 m/s 43.3 mm 10.0° 981.7 hPa 3.5 m/s 4.6 mm 10.8° 984.6 hPa 7.1 m/s 0.0 mm 8.9° 981.9 hPa 7.2 m/s 10.1° 982.0 hPa 6.4 m/s
12:00 9.8° 979.7 hPa 6.0 m/s 9.7 mm 7.6° 978.8 hPa 2.4 m/s 49.7 mm 10.7° 978.7 hPa 7.3 m/s 2.9 mm 11.1° 983.6 hPa 6.4 m/s 0.0 mm 9.3° 979.7 hPa 3.7 m/s 10.0° 980.5 hPa 4.5 m/s
15:00 9.2° 976.8 hPa 7.3 m/s 10.3 mm 5.2° 975.6 hPa 3.7 m/s 70.1 mm 10.7° 976.1 hPa 7.3 m/s 0.1 mm 9.4° 981.7 hPa 4.5 m/s 0.0 mm 9.2° 976.6 hPa 8.2 m/s 9.7° 977.0 hPa 4.1 m/s
18:00 8.2° 974.9 hPa 5.6 m/s 5.9 mm 4.2° 973.8 hPa 4.2 m/s 83.3 mm 10.0° 974.0 hPa 5.7 m/s 0.1 mm 6.1° 981.4 hPa 5.1 m/s 0.0 mm 8.5° 974.7 hPa 4.9 m/s 10.7° 975.5 hPa 8.4 m/s
21:00 6.3° 972.9 hPa 5.8 m/s 16.4 mm 3.1° 970.4 hPa 4.4 m/s 88.0 mm 8.8° 969.2 hPa 5.8 m/s 5.3 mm 2.9° 982.3 hPa 5.7 m/s 0.0 mm 8.4° 972.3 hPa 5.7 m/s 9.3° 972.2 hPa 5.6 m/s
 08:10     16:28    Daglengte: 8:18 Donderdag 21 Jan
00:00 3.2° 971.5 hPa 6.0 m/s 15.3 mm 3.5° 965.0 hPa 3.5 m/s 90.7 mm 3.2° 968.8 hPa 6.1 m/s 5.7 mm 3.3° 984.0 hPa 5.3 m/s 0.0 mm 3.1° 970.4 hPa 6.2 m/s 8.2° 967.8 hPa 4.1 m/s
03:00 2.1° 972.8 hPa 8.8 m/s 21.7 mm 1.2° 963.9 hPa 9.7 m/s 101.7 mm 3.2° 972.0 hPa 8.7 m/s 0.9 mm 2.1° 985.2 hPa 4.1 m/s 0.0 mm 1.6° 970.5 hPa 10.5 m/s 3.4° 967.4 hPa 12.3 m/s
06:00 2.4° 975.6 hPa 8.8 m/s 0.0 mm 2.3° 967.5 hPa 14.4 m/s 111.3 mm 3.1° 975.1 hPa 7.7 m/s 0.0 mm 3.1° 986.0 hPa 6.7 m/s 0.0 mm 2.3° 974.9 hPa 9.5 m/s 3.4° 970.0 hPa 13.9 m/s
09:00 2.6° 974.6 hPa 9.5 m/s 7.6 mm 2.7° 969.3 hPa 14.4 m/s 111.6 mm 3.0° 974.6 hPa 7.1 m/s 0.0 mm 1.9° 977.4 hPa 8.8 m/s 3.9° 971.1 hPa 12.3 m/s
12:00 3.3° 973.8 hPa 10.3 m/s 23.5 mm 2.3° 973.0 hPa 9.8 m/s 114.6 mm 4.9° 972.0 hPa 10.8 m/s 0.0 mm 2.9° 977.6 hPa 8.7 m/s 4.0° 973.4 hPa 12.5 m/s
15:00 3.0° 975.2 hPa 9.5 m/s 18.7 mm 2.5° 975.3 hPa 9.1 m/s 119.3 mm 4.4° 971.9 hPa 8.4 m/s 1.5 mm 2.1° 977.6 hPa 8.9 m/s 3.2° 974.9 hPa 8.9 m/s
18:00 3.7° 977.0 hPa 9.7 m/s 0.0 mm 2.7° 977.6 hPa 7.3 m/s 119.7 mm 4.1° 972.4 hPa 8.0 m/s 0.0 mm 3.5° 979.9 hPa 9.4 m/s 3.1° 977.6 hPa 5.8 m/s
21:00 3.2° 978.0 hPa 9.1 m/s 16.5 mm 2.7° 978.8 hPa 7.5 m/s 119.7 mm 3.5° 972.4 hPa 8.4 m/s 1.1 mm 2.9° 982.6 hPa 7.9 m/s 3.2° 978.4 hPa 6.7 m/s
 08:09     16:30    Daglengte: 8:21 Vrijdag 22 Jan
00:00 2.8° 979.6 hPa 8.4 m/s 17.1 mm 2.2° 979.8 hPa 6.7 m/s 119.8 mm 3.5° 973.9 hPa 9.2 m/s 2.1 mm 2.4° 985.0 hPa 7.7 m/s 3.2° 980.2 hPa 7.7 m/s
03:00 2.7° 981.3 hPa 8.1 m/s 41.1 mm 2.2° 980.7 hPa 7.4 m/s 120.2 mm 3.5° 977.3 hPa 9.6 m/s 1.6 mm 2.1° 986.9 hPa 7.1 m/s 2.9° 982.1 hPa 7.4 m/s
06:00 2.3° 983.4 hPa 7.1 m/s 40.8 mm 1.8° 982.2 hPa 5.5 m/s 121.3 mm 3.6° 980.4 hPa 9.2 m/s 0.5 mm 1.8° 988.7 hPa 6.4 m/s 2.5° 984.9 hPa 7.1 m/s
09:00 2.6° 987.3 hPa 6.9 m/s 0.0 mm -0.1° 984.9 hPa 5.1 m/s 121.5 mm 3.5° 984.1 hPa 7.7 m/s 0.1 mm 2.8° 990.0 hPa 7.0 m/s 2.6° 987.9 hPa 7.4 m/s
12:00 3.6° 989.1 hPa 7.2 m/s 0.0 mm 2.4° 986.8 hPa 5.8 m/s 121.5 mm 3.8° 987.0 hPa 7.1 m/s 0.0 mm 3.7° 991.3 hPa 7.5 m/s 4.3° 990.4 hPa 7.0 m/s
15:00 2.4° 992.0 hPa 6.1 m/s 46.6 mm 2.3° 992.1 hPa 6.1 m/s 3.8° 991.3 hPa 5.7 m/s 46.6 mm
18:00 1.6° 992.5 hPa 5.3 m/s 46.6 mm 1.6° 992.5 hPa 5.4 m/s 1.7° 992.9 hPa 3.9 m/s 46.6 mm
21:00 1.0° 993.1 hPa 4.7 m/s 46.6 mm 1.1° 993.1 hPa 4.9 m/s 0.9° 993.4 hPa 3.0 m/s 46.6 mm
 08:07     16:32    Daglengte: 8:25 Zaterdag 23 Jan
00:00 0.5° 993.8 hPa 4.3 m/s 46.6 mm 0.5° 993.7 hPa 4.4 m/s 0.4° 994.4 hPa 2.7 m/s 46.6 mm
03:00 -0.3° 993.2 hPa 3.6 m/s 46.6 mm -0.3° 993.0 hPa 3.7 m/s 0.1° 994.5 hPa 2.4 m/s 46.6 mm
06:00 -1.0° 992.6 hPa 2.9 m/s 46.6 mm -1.1° 992.4 hPa 3.0 m/s 0.0° 994.3 hPa 1.7 m/s 46.6 mm
09:00 0.5° 991.3 hPa 1.9 m/s 46.6 mm 0.5° 991.0 hPa 1.9 m/s 0.4° 994.4 hPa 1.5 m/s 46.6 mm
12:00 2.1° 990.0 hPa 1.0 m/s 46.6 mm 2.1° 989.6 hPa 0.8 m/s 2.6° 994.3 hPa 2.8 m/s 46.6 mm
15:00 1.1° 989.3 hPa 1.5 m/s 46.6 mm 1.0° 988.9 hPa 1.5 m/s 2.5° 993.6 hPa 2.4 m/s 46.6 mm
18:00 -0.0° 988.7 hPa 2.1 m/s 46.6 mm -0.1° 988.2 hPa 2.1 m/s 0.8° 993.8 hPa 1.9 m/s 46.6 mm
21:00 -1.0° 990.2 hPa 2.4 m/s 46.6 mm -1.2° 989.8 hPa 2.4 m/s 0.2° 994.3 hPa 2.6 m/s 46.6 mm
 08:06     16:34    Daglengte: 8:28 Zondag 24 Jan
00:00 -2.0° 991.7 hPa 2.8 m/s 46.6 mm -2.2° 991.4 hPa 2.7 m/s 0.2° 994.6 hPa 3.7 m/s 46.6 mm
03:00 -2.3° 993.4 hPa 3.6 m/s 46.6 mm -2.5° 993.3 hPa 3.5 m/s 0.2° 994.3 hPa 4.4 m/s 46.6 mm
06:00 -2.5° 995.1 hPa 4.3 m/s 46.6 mm -2.8° 995.2 hPa 4.3 m/s 0.4° 993.7 hPa 4.7 m/s 46.6 mm
09:00 -0.1° 996.7 hPa 4.0 m/s 47.5 mm -0.2° 996.9 hPa 4.0 m/s 0.7° 994.2 hPa 3.8 m/s 47.5 mm
12:00 2.4° 998.2 hPa 4.0 m/s 47.5 mm 2.4° 998.6 hPa 3.8 m/s 2.4° 994.1 hPa 6.0 m/s 47.5 mm
15:00 1.5° 998.5 hPa 3.9 m/s 47.5 mm 1.3° 999.0 hPa 3.5 m/s 3.4° 993.4 hPa 8.7 m/s 47.5 mm
18:00 0.3° 998.8 hPa 3.7 m/s 48.2 mm 0.2° 999.3 hPa 3.2 m/s 1.7° 993.5 hPa 9.6 m/s 48.2 mm
21:00 -0.7° 999.4 hPa 3.6 m/s 49.4 mm -1.1° 999.8 hPa 3.2 m/s 3.0° 994.5 hPa 8.4 m/s 49.4 mm
 08:04     16:36    Daglengte: 8:32 Maandag 25 Jan
00:00 -1.8° 1000.0 hPa 3.5 m/s 49.8 mm -2.3° 1000.4 hPa 3.1 m/s 3.2° 995.8 hPa 8.0 m/s 49.8 mm
03:00 -1.4° 1001.3 hPa 2.9 m/s 49.9 mm -1.8° 1001.6 hPa 2.5 m/s 2.8° 998.0 hPa 7.0 m/s 49.9 mm
06:00 -1.0° 1002.6 hPa 2.4 m/s 49.9 mm -1.3° 1002.8 hPa 2.0 m/s 2.6° 1000.0 hPa 6.5 m/s 49.9 mm
09:00 0.3° 1005.3 hPa 3.2 m/s 49.9 mm 0.1° 1005.5 hPa 3.0 m/s 2.5° 1003.3 hPa 5.4 m/s 49.9 mm
12:00 1.8° 1008.0 hPa 4.2 m/s 49.9 mm 1.5° 1008.2 hPa 3.9 m/s 4.6° 1005.7 hPa 7.2 m/s 49.9 mm
15:00 1.2° 1009.4 hPa 3.8 m/s 49.9 mm 0.9° 1009.6 hPa 3.6 m/s 4.2° 1007.2 hPa 6.1 m/s 49.9 mm
18:00 0.5° 1010.8 hPa 3.4 m/s 50.0 mm 0.4° 1011.0 hPa 3.3 m/s 2.1° 1008.9 hPa 4.0 m/s 50.0 mm
21:00 1.4° 1012.0 hPa 3.3 m/s 50.0 mm 1.3° 1012.2 hPa 3.3 m/s 2.0° 1009.4 hPa 3.2 m/s 50.0 mm
 08:03     16:38    Daglengte: 8:35 Dinsdag 26 Jan
00:00 2.2° 1012.9 hPa 3.3 m/s 50.0 mm 2.2° 1013.4 hPa 3.4 m/s 2.4° 1007.7 hPa 2.0 m/s 50.0 mm
03:00 1.5° 1012.1 hPa 3.1 m/s 51.7 mm 1.4° 1013.0 hPa 3.0 m/s 2.4° 1001.7 hPa 4.2 m/s 51.7 mm
06:00 0.9° 1011.1 hPa 2.8 m/s 59.7 mm 0.6° 1012.6 hPa 2.7 m/s 3.8° 994.7 hPa 4.4 m/s 59.7 mm
09:00 2.2° 1008.5 hPa 3.9 m/s 61.8 mm 1.7° 1010.0 hPa 3.6 m/s 8.1° 992.1 hPa 8.0 m/s 61.8 mm
12:00 3.2° 1006.1 hPa 5.0 m/s 61.9 mm 2.8° 1007.3 hPa 4.4 m/s 8.1° 993.2 hPa 11.6 m/s 61.9 mm
18:00 5.3° 995.3 hPa 7.8 m/s 61.9 mm 5.1° 995.3 hPa 7.1 m/s 7.5° 995.8 hPa 15.4 m/s 61.9 mm
 08:01     16:39    Daglengte: 8:38 Woensdag 27 Jan
00:00 7.8° 994.8 hPa 10.6 m/s 61.9 mm 8.0° 994.4 hPa 11.0 m/s 6.1° 999.7 hPa 6.4 m/s 61.9 mm
06:00 7.7° 995.9 hPa 9.0 m/s 62.2 mm 7.8° 995.3 hPa 9.5 m/s 6.9° 1002.0 hPa 3.7 m/s 62.2 mm
12:00 8.4° 997.0 hPa 8.9 m/s 62.4 mm 8.4° 996.6 hPa 9.3 m/s 8.0° 1001.3 hPa 4.1 m/s 62.4 mm
18:00 5.5° 996.4 hPa 6.9 m/s 62.5 mm 5.4° 996.0 hPa 7.2 m/s 7.2° 1001.1 hPa 3.5 m/s 62.5 mm
 08:00     16:41    Daglengte: 8:41 Donderdag 28 Jan
00:00 5.7° 995.0 hPa 2.5 m/s 62.5 mm 5.7° 994.4 hPa 2.6 m/s 5.1° 1001.5 hPa 1.9 m/s 62.5 mm
06:00 4.5° 987.4 hPa 5.2 m/s 65.2 mm 4.4° 986.1 hPa 5.6 m/s 5.1° 1001.7 hPa 1.0 m/s 65.2 mm
12:00 1.9° 986.4 hPa 4.4 m/s 66.4 mm 1.3° 984.6 hPa 4.3 m/s 7.9° 1005.6 hPa 5.2 m/s 66.4 mm
18:00 2.7° 994.5 hPa 5.1 m/s 66.5 mm 2.3° 993.5 hPa 5.2 m/s 6.9° 1005.4 hPa 4.2 m/s 66.5 mm
 07:58     16:43    Daglengte: 8:45 Vrijdag 29 Jan
00:00 7.4° 999.4 hPa 3.8 m/s 72.3 mm 7.4° 999.4 hPa 3.8 m/s 72.3 mm
06:00 4.7° 1001.6 hPa 2.7 m/s 0.5 mm
12:00 6.4° 1003.8 hPa 3.1 m/s 0.8 mm
18:00 5.8° 1003.1 hPa 3.0 m/s 1.2 mm
 07:56     16:45    Daglengte: 8:49 Zaterdag 30 Jan
00:00 5.9° 1002.7 hPa 3.5 m/s 1.2 mm
06:00 5.7° 1000.8 hPa 3.6 m/s 1.1 mm
12:00 7.3° 1000.0 hPa 4.1 m/s 1.5 mm
18:00 6.0° 998.8 hPa 3.1 m/s 1.4 mm
 07:55     16:47    Daglengte: 8:52 Zondag 31 Jan
00:00 5.4° 998.4 hPa 3.8 m/s 1.3 mm
06:00 4.5° 997.9 hPa 4.1 m/s 1.2 mm
12:00 6.1° 998.9 hPa 4.6 m/s 0.8 mm
18:00 4.6° 998.5 hPa 3.6 m/s 0.0 mm
 07:53     16:49    Daglengte: 8:56 Maandag 01 Feb
00:00 3.9° 999.6 hPa 2.9 m/s 1.3 mm
06:00 3.6° 999.2 hPa 2.4 m/s 1.1 mm
12:00 5.4° 999.1 hPa 2.7 m/s 0.0 mm
18:00 4.2° 998.2 hPa 1.6 m/s 2.6 mm
 07:51     16:51    Daglengte: 9:00 Dinsdag 02 Feb
00:00 3.4° 999.1 hPa 1.5 m/s 1.5 mm
06:00 3.0° 999.2 hPa 1.6 m/s 1.3 mm
12:00 5.2° 1000.3 hPa 3.2 m/s 0.7 mm
18:00 3.5° 1001.4 hPa 2.9 m/s 0.4 mm
 07:49     16:53    Daglengte: 9:04 Woensdag 03 Feb
00:00 2.9° 1002.8 hPa 2.3 m/s 0.4 mm
06:00 2.2° 1002.9 hPa 2.0 m/s 0.5 mm
FMI Hirlam - 7.5 km EWN WRFDA - 12 km DWD ICON - 7 km GFS - 25 km Basiskaart






























































Updatetijd (Europe/Amsterdam) Resolutie Lengte Stap
FMI Hirlam 06:15, 12:15, 18:15, 00:15 7.5 km 49h 1h
EWN WRFDA 09:30, 15:30, 21:30, 03:30 12 km 73h 1h
DWD ICON 10:45, 16:45, 22:45, 04:45 7 km 75h 1h
GFS 07:15, 13:15, 19:15, 01:15 25 km 237h 3h
30+ mm
25-30 mm
20-25 mm
15-20 mm
10-15 mm
6-10 mm
4-6 mm
2-4 mm
1-2 mm
0.5-1 mm
0.2-0.5 mm
0.1-0.2 mm
30+ mm
25-30 mm
20-25 mm
15-20 mm
10-15 mm
6-10 mm
4-6 mm
2-4 mm
1-2 mm
0.5-1 mm
0.2-0.5 mm
0.1-0.2 mm
Sneeuwval
Natte sneeuw
Hagel
Vorst
30+ mm
25-30 mm
20-25 mm
15-20 mm
10-15 mm
6-10 mm
4-6 mm
2-4 mm
1-2 mm
0.5-1 mm
0.2-0.5 mm
0.1-0.2 mm
Sneeuwval
Natte sneeuw
Hagel
Vorst
Onweer
50 mm
40 mm
30 mm
26 mm
22 mm
18 mm
14 mm
10 mm
9 mm
8 mm
7 mm
6 mm
5 mm
4.5 mm
4 mm
3.5 mm
3 mm
2.5 mm
2 mm
1.5 mm
1 mm
0.8 mm
0.6 mm
0.4 mm
0.2 mm
0.05 mm
35°
30°
25°
20°
15°
10°
-5°
-10°
-15°
-20°
-25°
-30°
-35°
33> m/s
29 m/s
25 m/s
21 m/s
17 m/s
14 m/s
11 m/s
8 m/s
5 m/s
3 m/s
0 m/s
2600 J/kg
2400 J/kg
2200 J/kg
2000 J/kg
1800 J/kg
1600 J/kg
1400 J/kg
1200 J/kg
1000 J/kg
800 J/kg
600 J/kg
400 J/kg
200 J/kg
70 dBZ
65 dBZ
60 dBZ
55 dBZ
50 dBZ
45 dBZ
40 dBZ
35 dBZ
30 dBZ
25 dBZ
20 dBZ
15 dBZ
10 dBZ
5 dBZ
-1 K
-2 K
-3 K
-4 K
-5 K
-6 K
-7 K
-8 K
-9 K
950 m²/s²
900 m²/s²
850 m²/s²
800 m²/s²
750 m²/s²
700 m²/s²
650 m²/s²
600 m²/s²
550 m²/s²
500 m²/s²
450 m²/s²
400 m²/s²
350 m²/s²
300 m²/s²
250 m²/s²
200 m²/s²
150 m²/s²
100 m²/s²
46 m/s
44 m/s
42 m/s
40 m/s
38 m/s
36 m/s
34 m/s
32 m/s
30 m/s
28 m/s
26 m/s
24 m/s
22 m/s
20 m/s
16 m/s
12 m/s
8 m/s
4 m/s
30 m/s
28 m/s
26 m/s
24 m/s
22 m/s
20 m/s
18 m/s
16 m/s
14 m/s
12 m/s
10 m/s
8 m/s
6 m/s
4 m/s
2 m/s
3.0
2.8
2.6
2.4
2.2
2.0
1.8
1.6
1.4
1.2
1.0
0.8
0.6
0.4
0.2
15
14
13
12
11
10
9
8
7
6
5
4
3
2
1
90%
80%
70%
60%
50%
40%
30%
20%
10%
42
40
38
36
34
32
30
28
26
24
22
20
18
16
14
12
90+ cm
80-90 cm
70-80 cm
60-70 cm
50-60 cm
40-50 cm
30-40 cm
20-30 cm
10-20 cm
1-10 cm
Sneeuwval
Natte sneeuw
Regen
>120 mm
115 mm
110 mm
105 mm
100 mm
95 mm
90 mm
85 mm
80 mm
75 mm
70 mm
65 mm
60 mm
55 mm
50 mm
45 mm
45 mm
40 mm
35 mm
30 mm
25 mm
20 mm
15 mm
10 mm
5 mm
0.1 mm
960 hPa
880 hPa
800 hPa
720 hPa
<